Theta_e
310 309 309 308 308 308 307 307 307 307 307 307 308 307 307 307 307 308 307 307 307 307 308 308 308 309 310 311 312 314 315 315 316 314 315 316 315 316 316 314 313 313 312 314 313 313 313 313 313 312 317 317 314 315 314 316 322 329 335 326 313 315 319 320 324 321 317 319 318 316 315 317 317 316 313 309 313 317 316 317 314 311 309 306 305 304 305 307
308 309 308 308 307 308 308 308 308 308 307 308 308 308 308 308 308 309 309 309 309 309 309 309 310 311 312 314 315 317 317 316 315 315 317 317 316 316 316 314 312 313 312 313 313 313 314 316 312 313 321 318 313 317 319 314 320 333 330 320 317 322 320 318 324 322 317 317 318 317 314 315 314 314 313 313 319 318 316 318 315 316 315 307 304 305 305 306
307 308 310 310 308 308 309 308 309 308 308 309 309 310 309 310 310 310 311 312 312 312 312 313 314 314 315 316 318 319 318 317 316 316 318 317 316 315 313 313 312 312 313 313 314 313 315 316 311 315 323 318 314 320 323 317 318 325 324 321 324 327 323 318 322 321 317 315 316 318 314 315 315 313 313 314 318 318 317 318 314 315 316 310 305 302 303 303
309 309 311 311 309 308 310 310 310 309 309 310 311 312 312 313 314 314 314 315 315 316 316 317 317 318 318 319 319 320 318 319 317 316 318 316 315 314 312 313 312 312 314 313 314 314 314 314 312 317 321 318 320 321 320 317 317 317 320 323 322 321 320 319 322 321 317 314 315 319 315 315 314 312 314 315 316 318 317 315 313 313 314 312 306 301 301 301
310 310 310 310 310 309 311 312 312 311 311 312 313 314 315 315 316 316 316 317 316 316 316 316 317 317 318 319 320 320 321 322 316 313 316 316 313 313 313 312 312 313 313 313 314 314 313 312 314 322 321 317 323 320 315 316 316 316 319 322 322 319 317 318 323 320 317 313 314 318 315 314 312 311 317 316 315 316 313 311 312 310 309 309 305 301 300 300
311 309 308 309 309 309 310 312 313 313 313 314 315 315 315 315 315 315 315 315 315 315 314 314 314 314 314 316 319 320 322 321 314 313 317 316 313 313 313 312 312 313 313 314 314 313 315 315 317 325 323 317 319 315 314 315 315 318 319 318 321 319 316 318 320 317 315 314 316 317 313 312 313 313 316 315 316 313 306 306 306 303 302 301 300 300 300 299
310 309 308 308 309 309 310 312 314 314 313 314 315 315 315 315 315 314 314 314 314 314 313 313 313 312 312 314 318 321 322 322 317 317 320 318 315 313 313 313 313 313 313 314 314 315 318 318 319 322 322 317 315 314 313 313 315 320 320 320 319 316 318 319 317 317 315 315 316 313 309 311 314 313 312 313 313 308 301 301 301 299 299 299 299 299 299 299
311 309 308 307 308 310 310 312 313 313 314 314 314 315 315 315 316 315 314 315 314 314 314 314 314 312 312 314 319 324 325 323 319 319 321 319 317 313 313 313 313 312 313 314 314 316 317 316 317 317 318 315 314 315 313 312 318 321 319 321 318 316 321 319 315 317 315 314 312 309 310 312 314 312 311 311 308 302 301 300 299 299 299 299 299 298 298 298
313 310 309 308 309 311 311 312 312 313 314 314 314 315 314 314 315 315 316 316 315 316 316 315 316 314 313 313 319 326 324 320 319 319 319 318 316 313 313 313 313 313 312 313 314 313 314 316 316 314 316 315 312 314 314 314 319 319 318 321 319 316 318 315 314 316 315 313 310 310 313 312 310 310 310 309 304 301 301 301 299 299 299 298 298 298 298 298
313 311 309 309 310 311 312 312 313 314 314 314 314 314 314 315 316 316 317 317 317 318 317 317 316 315 314 313 317 323 321 320 321 320 319 318 316 313 313 313 313 313 311 312 313 312 313 316 313 311 315 316 312 312 314 313 315 316 317 319 317 315 314 313 314 315 313 312 311 312 314 312 307 310 312 308 302 302 306 305 299 299 299 297 297 297 297 297
313 311 310 310 310 312 312 312 313 314 314 314 314 314 315 316 317 317 318 318 319 319 318 318 316 315 314 313 319 322 318 320 322 320 319 317 316 314 314 313 313 312 312 312 312 312 313 312 309 309 313 314 313 313 313 311 312 314 314 316 317 316 315 315 314 312 312 313 312 311 313 312 308 311 313 308 303 305 311 309 300 299 299 297 297 297 297 297
314 312 311 310 310 311 311 312 314 314 315 315 316 316 317 318 318 319 319 319 319 319 319 318 317 316 313 314 319 318 316 319 321 319 319 316 315 314 314 314 313 312 312 312 313 312 313 311 310 314 314 313 315 315 312 310 311 313 313 314 318 319 317 315 313 311 312 313 312 312 314 315 312 312 310 306 305 308 312 309 302 300 298 298 297 296 296 296
314 313 312 310 310 311 311 313 314 315 316 316 317 317 318 319 319 319 319 320 320 319 319 317 317 314 314 319 318 314 315 317 319 319 318 316 314 314 314 313 313 312 313 313 313 313 314 312 313 315 313 316 317 312 311 312 311 313 312 314 316 319 320 314 311 312 312 312 310 312 318 320 315 311 308 306 306 312 317 311 304 301 298 298 297 296 296 295
314 314 313 311 311 310 311 313 314 315 316 317 318 319 320 319 320 320 320 320 319 319 318 316 316 314 315 321 316 313 315 315 317 318 316 315 314 315 315 314 314 314 313 314 314 314 314 311 311 313 311 315 314 309 315 319 318 315 311 317 320 316 323 320 313 315 314 310 309 312 318 320 313 309 308 305 305 315 320 311 304 302 299 297 296 296 296 295
315 314 313 312 311 312 313 314 314 315 316 318 319 320 320 320 321 321 320 319 318 317 316 314 315 314 317 321 314 313 315 314 317 318 316 315 314 314 314 314 314 314 313 313 314 313 312 312 314 316 312 311 312 314 321 322 324 323 314 324 325 316 325 326 314 315 314 310 310 313 318 319 313 309 307 303 306 316 317 308 304 303 299 297 296 295 295 295
315 314 313 313 312 314 315 314 314 316 316 318 320 321 321 321 321 320 318 316 315 316 315 315 314 314 320 320 314 313 315 315 317 318 317 315 314 315 313 313 313 312 313 311 312 312 311 314 313 313 312 312 316 324 327 322 326 326 317 323 329 319 321 321 315 314 313 310 311 313 317 319 313 308 305 302 306 315 314 307 303 302 300 297 296 295 295 295
315 314 314 314 313 313 315 314 315 316 317 319 321 321 321 321 320 318 316 314 316 316 315 316 314 314 319 316 315 316 314 313 316 317 318 316 315 315 313 312 310 310 312 310 311 312 311 313 311 311 314 314 318 324 327 324 326 326 316 318 325 320 318 319 319 315 311 312 313 313 314 316 313 307 307 304 304 315 316 308 303 301 299 296 296 295 294 294
313 314 314 314 313 313 314 315 315 316 318 319 321 321 320 320 318 317 316 316 316 315 315 314 313 318 321 316 315 316 313 312 315 317 317 317 315 315 314 311 308 310 314 313 312 313 313 315 316 318 317 313 315 320 325 325 328 330 321 319 322 319 317 319 320 315 313 316 316 315 315 316 314 310 311 306 304 316 314 304 301 300 298 297 295 295 294 294
313 313 315 314 313 314 315 315 315 317 318 319 320 320 318 317 317 316 314 315 319 321 321 318 317 323 323 317 314 313 312 313 314 314 315 316 313 313 313 310 311 314 316 317 313 313 317 318 319 319 316 314 314 316 321 322 324 329 327 327 327 323 319 319 320 316 313 315 318 318 317 319 316 312 315 309 304 311 307 300 301 299 298 297 296 295 294 294
314 314 315 315 314 314 316 316 316 317 318 319 320 318 320 322 321 321 317 316 322 322 323 323 321 324 320 316 314 312 313 313 313 313 313 313 311 312 311 308 314 316 316 322 317 312 315 318 319 319 317 316 313 313 317 321 321 323 325 327 327 324 321 318 318 316 312 314 320 318 316 318 316 313 316 310 305 308 306 304 303 300 299 298 297 296 295 294
316 317 317 316 314 315 318 317 316 318 318 318 319 319 324 327 324 324 322 321 319 314 319 321 316 319 317 313 313 312 314 314 311 312 312 311 310 313 313 311 315 316 315 321 317 310 313 319 319 317 318 317 313 312 313 318 318 318 321 322 322 322 320 316 314 314 312 314 319 316 314 317 315 314 314 309 309 310 307 306 304 300 299 298 297 297 295 295
317 318 318 316 315 316 317 318 318 319 319 319 319 318 319 320 318 318 319 324 322 314 316 316 313 316 314 311 312 312 315 318 315 312 312 310 310 314 315 314 318 319 315 315 315 313 315 318 316 316 318 316 313 312 311 313 313 315 319 318 318 318 319 318 314 312 311 313 320 317 314 316 315 315 312 306 308 306 301 303 302 300 300 298 298 297 296 296
317 318 319 317 315 315 317 318 319 319 319 319 319 318 317 317 316 315 317 325 327 319 318 318 318 320 317 313 313 312 316 320 319 316 312 310 311 314 314 314 317 319 315 314 317 317 319 319 314 315 318 315 314 314 311 312 312 314 318 317 317 317 318 322 318 313 311 311 315 316 314 315 314 314 309 302 302 301 298 300 300 299 300 298 297 296 296 296
318 319 319 318 316 316 317 318 319 319 320 320 319 319 318 317 315 315 318 324 327 324 320 318 318 322 322 316 313 315 317 319 321 318 311 311 313 313 314 315 316 317 314 314 315 317 320 318 311 312 316 316 317 315 313 314 314 315 315 314 316 316 317 321 318 315 315 313 311 312 316 320 319 317 312 303 299 299 298 298 298 298 297 296 295 295 295 294
318 319 320 318 316 317 318 319 320 319 320 320 320 320 318 317 315 314 320 326 329 326 319 315 316 321 320 314 313 316 318 319 321 317 310 311 313 312 313 314 315 316 314 312 313 314 317 315 312 314 314 315 317 318 317 317 317 318 318 315 314 316 318 319 317 315 320 321 314 312 322 331 330 326 317 306 302 302 300 299 299 298 296 296 296 295 294 294
318 319 320 319 317 317 318 320 320 320 321 320 319 320 319 318 315 314 321 329 330 326 321 318 319 321 318 314 313 316 321 321 314 311 310 310 312 312 314 312 313 316 315 313 314 316 317 312 314 320 318 315 315 318 319 317 317 320 320 317 313 313 317 318 318 318 323 325 314 310 320 329 331 329 318 307 305 305 301 301 300 298 297 297 297 296 295 294
319 320 320 319 317 318 319 320 321 320 321 321 319 320 320 319 315 313 320 330 329 325 323 320 317 318 317 313 313 319 326 321 311 309 310 311 311 311 315 315 314 314 314 316 319 319 318 314 315 319 320 318 316 318 318 314 319 324 319 318 317 315 318 319 318 320 323 321 315 314 317 321 324 324 315 306 309 308 303 302 301 299 299 298 297 297 296 295
319 319 320 319 317 318 319 320 320 319 320 321 319 320 321 317 315 316 325 334 329 321 322 319 314 313 312 309 313 320 318 315 317 313 307 308 310 311 317 318 317 317 315 318 323 319 316 318 319 317 318 319 318 322 319 314 320 323 314 314 318 317 319 320 319 319 317 316 321 321 316 317 324 324 314 308 313 316 309 304 302 299 299 298 298 297 296 295
320 320 320 319 318 318 319 319 320 319 320 320 320 321 319 314 315 322 329 331 327 320 319 317 312 311 312 311 314 316 310 311 318 314 306 308 309 310 316 318 318 318 313 317 323 319 313 314 317 318 319 319 320 320 314 315 319 315 309 312 315 315 317 317 318 319 315 314 322 323 316 318 326 328 319 313 316 319 313 305 302 300 298 298 298 297 296 296
320 321 320 319 318 317 318 319 319 320 320 320 320 318 315 318 321 328 329 329 327 321 315 314 313 313 315 317 317 314 312 312 312 311 310 311 311 311 311 312 316 318 315 316 320 317 311 307 310 317 318 318 319 312 308 313 314 309 312 316 316 318 318 318 319 317 316 320 322 319 316 317 323 327 322 316 317 319 316 310 303 299 299 298 298 297 296 295
321 321 320 319 318 317 318 319 319 321 320 318 318 315 317 324 328 331 330 326 325 321 316 315 314 314 317 321 321 316 313 313 310 312 314 311 312 314 312 313 317 322 321 319 318 315 311 310 312 314 313 313 316 311 306 308 307 310 321 321 319 322 320 319 323 319 320 326 321 314 313 315 320 327 323 317 316 315 318 316 306 300 299 298 297 297 296 295
321 321 320 319 318 317 318 320 320 321 320 316 316 317 323 327 327 331 329 325 326 323 321 320 315 315 318 320 320 315 314 315 311 314 316 313 314 314 315 319 321 326 327 321 320 317 315 316 315 312 309 312 319 317 310 308 307 313 322 321 322 325 320 321 325 320 321 323 315 310 313 314 317 323 320 317 316 313 312 311 305 299 298 297 297 296 295 295
321 321 320 319 319 317 318 320 320 321 319 315 316 322 327 328 328 330 328 328 328 320 319 320 316 317 318 318 318 313 314 315 312 314 315 314 315 314 315 317 318 326 330 320 318 320 321 319 314 311 312 313 318 318 316 315 312 313 318 321 324 325 325 330 326 320 321 318 310 308 313 316 317 319 317 315 313 308 304 303 302 300 298 297 297 295 295 294
321 320 319 318 318 318 318 319 321 321 318 315 319 324 326 328 328 328 328 328 325 318 317 317 315 316 318 319 318 314 317 317 312 314 314 313 315 316 316 315 313 322 326 319 318 321 326 326 318 315 315 314 314 315 320 319 312 313 317 319 322 325 330 334 329 327 327 319 311 309 314 322 322 316 311 307 303 300 300 300 299 300 298 297 297 295 295 295
321 320 319 318 318 318 318 319 321 321 317 317 322 325 326 328 327 327 328 326 324 320 316 314 316 318 318 317 315 313 318 318 313 314 315 315 317 318 319 315 312 319 324 322 321 319 321 327 321 314 311 312 313 314 317 317 314 313 315 316 320 323 325 322 318 319 321 320 316 313 317 321 318 312 304 301 300 299 299 299 298 300 298 297 297 296 295 294
320 319 319 318 318 318 318 318 320 319 317 319 324 325 325 326 326 327 327 325 324 320 315 316 319 319 318 317 315 312 314 316 315 315 315 314 316 317 318 317 313 314 319 322 323 319 320 324 317 310 310 310 311 314 314 316 319 314 313 318 318 316 321 321 313 309 312 319 320 316 318 317 313 314 308 303 303 302 300 300 299 298 297 297 297 295 295 294
319 318 318 318 318 318 318 318 319 317 317 321 324 325 324 324 327 328 326 324 320 316 317 321 321 320 320 319 318 315 315 316 314 315 317 316 317 316 316 318 314 312 315 319 321 321 324 327 315 310 313 309 306 312 313 312 316 316 317 320 314 311 319 322 319 317 317 322 322 317 318 317 316 319 313 306 310 309 303 300 299 297 297 297 296 295 295 294
319 318 318 318 318 318 317 318 318 317 319 322 324 326 324 325 327 326 324 322 317 316 321 325 322 321 321 321 320 315 315 318 315 315 318 316 318 318 315 317 315 311 312 314 318 319 320 324 318 310 312 309 305 312 315 309 309 315 317 316 316 319 321 319 320 324 322 323 324 318 315 316 317 319 317 312 315 314 306 300 298 298 297 296 296 296 295 294
318 318 319 319 318 318 318 318 317 318 322 324 325 326 325 325 325 325 324 320 318 319 322 325 323 321 320 321 321 316 314 318 315 315 318 317 318 317 313 316 316 312 312 312 316 318 315 320 321 311 309 310 308 312 317 313 309 311 312 310 314 319 321 320 319 321 322 324 325 321 318 319 318 318 319 316 313 312 309 304 300 298 296 296 296 296 295 294
318 320 321 319 317 318 318 317 317 319 323 326 326 326 326 325 324 324 324 321 321 320 322 326 326 323 322 319 319 318 316 316 314 314 319 317 316 316 312 314 315 313 312 310 314 317 314 316 321 314 308 311 314 314 315 315 311 311 313 313 313 314 316 319 317 316 321 325 326 323 320 320 317 312 313 314 311 309 309 307 302 297 296 296 296 296 295 294
318 321 321 318 317 318 317 318 319 321 323 325 326 325 324 324 323 322 321 320 323 321 322 328 327 325 324 319 319 320 318 317 315 315 318 317 317 319 315 313 315 313 311 311 313 317 315 317 322 318 311 314 319 315 311 312 313 314 314 314 314 314 316 319 318 316 317 320 324 323 320 320 316 308 308 310 311 308 306 305 301 298 297 296 296 296 295 294
319 322 320 318 318 317 318 320 320 321 323 324 325 325 323 323 323 321 319 319 323 323 321 326 327 325 324 321 321 322 319 320 317 315 319 317 317 320 316 313 313 311 312 314 313 315 318 320 322 321 316 316 315 310 308 311 313 314 315 315 315 315 316 320 321 318 317 317 318 319 321 321 311 305 307 308 307 305 303 303 302 299 297 296 296 296 295 295
320 320 317 316 318 317 318 322 321 321 323 323 324 325 323 323 322 321 320 319 322 323 322 324 324 324 324 322 323 321 319 321 318 315 320 319 316 319 318 313 312 311 314 315 313 314 317 318 319 320 320 318 314 311 309 309 311 313 316 316 315 314 317 320 319 319 320 320 318 318 321 319 310 306 307 304 302 302 300 301 302 300 298 296 296 296 296 295
319 317 314 315 317 317 320 323 322 322 322 322 322 323 321 321 321 321 321 320 321 323 323 323 322 323 324 323 323 321 319 321 320 316 319 321 316 316 315 311 311 314 316 317 318 316 316 318 320 321 323 322 319 317 314 312 311 314 317 316 314 315 317 317 316 318 319 320 320 319 320 319 313 307 306 303 302 302 300 299 300 300 299 297 296 296 296 295
317 315 313 314 315 317 321 322 322 322 322 321 321 321 321 321 320 320 321 321 321 323 324 324 322 323 324 321 321 322 320 322 323 319 319 321 316 313 313 311 312 315 317 320 321 317 317 321 320 319 321 322 322 322 319 317 314 314 316 315 314 314 315 315 317 318 318 318 319 319 319 319 314 308 307 306 305 306 303 300 300 300 299 297 296 296 295 295
319 317 314 314 314 316 319 320 321 322 320 320 320 320 320 320 319 319 320 321 321 321 323 323 321 321 322 321 321 323 321 321 323 321 321 321 317 312 311 311 313 316 316 318 319 316 320 323 319 318 320 320 322 320 316 318 318 316 316 315 314 313 313 315 319 319 318 318 318 318 318 320 317 312 310 309 309 310 307 303 302 301 299 297 297 296 296 295
319 317 315 315 315 315 317 318 319 321 320 319 319 318 319 320 320 319 319 320 321 320 321 321 321 321 322 321 321 323 322 320 321 321 321 321 318 312 308 310 313 314 313 314 314 316 321 321 318 318 319 319 321 318 315 318 321 318 317 316 314 313 313 315 316 317 319 320 318 318 318 319 319 316 313 311 310 309 307 306 305 303 300 298 297 297 297 296
314 315 314 314 316 315 316 317 318 319 319 319 318 318 319 319 319 320 319 319 319 320 320 320 320 321 322 321 322 323 321 321 321 320 320 319 318 314 311 311 312 311 311 312 313 317 321 321 319 318 318 319 320 318 317 320 321 320 320 318 315 313 312 313 313 315 318 318 317 318 317 317 318 317 314 312 309 307 307 306 304 302 302 300 298 298 297 296
310 312 311 311 314 314 315 316 317 318 319 319 318 318 319 319 319 320 319 318 318 319 321 322 320 320 320 321 322 322 321 321 321 319 319 318 318 317 315 315 313 310 311 314 315 317 320 321 320 318 318 319 319 318 317 317 318 319 319 318 317 315 313 312 312 313 315 316 316 316 315 315 316 315 312 309 309 308 306 305 303 303 304 305 303 302 300 298
309 310 309 310 312 311 312 314 315 317 317 318 318 317 317 319 320 320 319 319 320 319 319 321 320 320 320 320 322 322 320 320 321 319 318 318 318 318 317 317 315 310 310 314 315 315 317 319 317 317 319 319 316 316 316 315 316 317 317 316 316 315 314 313 313 313 313 314 313 313 312 312 312 313 311 308 306 306 305 305 305 304 305 306 305 304 303 301
302 302 304 310 310 307 309 312 312 314 315 315 316 316 316 317 318 319 319 317 318 320 319 320 320 320 319 318 320 321 319 319 321 320 319 318 318 318 317 316 316 313 311 311 313 314 315 315 313 315 320 320 313 311 313 311 311 313 314 314 313 313 314 313 312 312 312 313 313 311 311 311 310 310 310 307 305 305 305 306 305 303 303 303 305 305 304 302
300 300 303 309 309 305 306 308 308 311 313 312 312 313 314 316 317 319 318 315 315 315 315 318 320 319 319 319 319 319 319 318 317 315 315 316 315 315 315 314 314 315 312 310 311 312 312 314 314 315 320 317 307 306 310 310 312 315 314 314 313 312 313 311 310 310 309 311 313 312 312 312 310 307 306 306 305 305 306 305 305 303 302 301 302 302 302 302
Wind_Speed
2 2 3 4 4 3 3 3 3 1 2 2 1 2 1 1 1 1 2 3 3 4 4 5 6 6 7 9 10 12 13 13 12 10 6 4 2 3 2 1 2 3 4 3 2 3 3 5 6 6 4 3 4 2 3 3 2 4 3 3 1 2 2 4 6 5 2 1 2 2 1 3 1 4 2 1 2 3 4 5 4 4 1 7 10 13 14 12
2 2 2 3 4 3 3 3 2 2 2 2 2 2 1 1 0 1 2 3 4 4 5 5 6 6 7 9 10 12 14 14 9 6 6 2 2 4 3 1 3 4 4 3 2 3 4 3 4 6 6 3 3 2 2 2 3 3 3 3 1 4 3 4 6 5 2 0 2 2 1 1 0 2 3 2 5 5 5 6 5 6 3 7 15 18 18 18
1 1 1 2 3 3 3 3 2 3 2 2 1 1 1 0 1 2 2 3 4 5 5 6 6 6 7 9 10 12 14 11 5 4 5 4 5 4 3 2 3 5 4 3 4 4 6 3 3 5 4 3 2 2 3 3 2 1 3 2 3 5 3 3 5 5 3 2 1 2 2 2 1 2 2 1 6 6 2 4 2 4 6 6 11 17 20 22
2 2 2 2 3 3 3 3 2 2 2 1 1 1 1 1 1 1 3 3 4 5 5 6 6 6 7 8 8 10 11 8 2 1 4 4 5 4 3 3 4 5 3 4 6 6 7 6 6 5 3 3 3 3 3 3 1 1 3 2 4 2 1 3 5 5 4 3 3 1 3 4 2 1 0 2 4 7 3 3 1 2 5 5 6 12 18 20
3 3 3 3 3 3 3 2 2 2 1 0 0 0 1 1 2 2 3 4 5 5 5 6 6 6 6 7 7 8 8 5 1 1 3 3 4 5 4 4 5 5 3 5 6 6 6 5 6 6 4 2 4 4 2 3 1 1 1 2 4 3 1 4 4 4 3 3 3 2 2 2 1 1 3 5 3 4 2 1 1 2 3 4 5 8 13 16
4 5 4 4 4 4 4 3 2 1 1 0 1 1 1 2 3 3 3 4 5 5 5 5 6 5 5 5 5 5 5 1 3 2 1 1 2 3 4 4 4 4 3 5 7 5 5 5 6 4 3 3 2 3 0 3 2 0 2 1 3 4 3 3 2 3 4 4 1 3 2 0 2 2 3 6 5 2 3 3 4 6 6 5 7 8 10 12
5 5 5 6 5 6 5 3 2 2 1 1 1 1 2 3 3 3 4 4 4 5 5 5 5 5 4 3 3 4 4 3 4 3 3 2 2 2 4 3 4 3 4 6 6 4 4 5 4 3 3 3 1 2 1 3 4 3 1 2 1 4 4 3 2 2 4 4 4 3 1 1 2 3 1 4 3 3 5 6 9 9 9 8 9 10 9 10
6 6 6 7 6 7 5 3 3 2 2 2 1 2 2 3 3 3 4 4 4 5 5 5 5 4 3 1 2 4 2 4 4 3 4 2 4 4 4 3 3 4 5 5 5 5 4 4 3 4 3 1 2 3 1 2 4 3 2 2 1 3 5 4 3 4 5 5 3 2 1 5 6 3 2 2 1 5 4 6 8 8 10 10 10 10 9 10
7 7 7 7 7 7 5 4 3 3 3 2 2 2 2 3 3 3 4 4 4 4 4 4 4 3 1 2 5 3 3 4 2 2 3 3 4 5 5 3 3 4 5 5 5 7 4 2 4 4 3 2 3 3 0 0 1 2 3 2 2 4 5 3 4 5 5 4 2 2 2 3 4 3 1 1 3 3 4 6 5 6 9 9 8 9 9 10
8 8 8 8 8 7 6 5 4 4 4 3 3 2 2 3 3 4 4 4 4 4 4 3 3 2 1 3 6 1 3 2 1 1 1 3 4 6 5 3 3 4 6 6 6 7 3 5 5 5 5 3 3 2 0 2 1 3 3 3 4 5 5 2 4 4 3 3 3 4 3 1 2 1 2 0 3 3 5 7 5 7 8 7 6 7 9 10
9 8 9 8 8 8 6 7 5 4 4 3 3 3 2 3 3 4 4 4 4 4 4 3 2 1 2 4 5 3 3 2 2 1 2 3 4 5 4 3 3 5 7 7 7 7 3 7 10 6 3 2 2 2 1 2 3 2 0 4 6 6 6 2 2 4 1 2 5 6 3 0 1 1 4 1 2 3 6 6 5 7 6 5 6 6 8 9
10 8 8 8 8 8 7 7 5 4 3 2 3 3 2 3 3 4 4 4 4 3 3 2 1 2 3 3 3 6 4 3 3 2 2 3 4 4 4 4 4 5 6 6 7 7 4 9 12 6 0 4 3 1 1 2 3 1 3 4 8 7 6 4 3 3 2 0 3 5 1 3 2 3 4 2 3 5 7 5 5 5 4 4 5 5 6 9
11 8 8 9 9 9 8 7 5 4 3 3 4 2 2 3 3 4 4 4 4 3 3 2 1 3 3 1 4 8 7 6 4 2 3 4 4 5 5 5 6 5 4 5 6 7 6 9 10 6 3 5 2 1 3 3 2 1 3 2 6 7 5 4 2 4 3 0 1 1 2 4 4 5 4 1 3 3 5 5 4 4 3 4 3 4 5 9
12 10 9 9 9 10 9 6 4 4 3 4 3 1 2 3 3 4 4 4 4 3 2 0 3 4 3 3 4 4 8 8 6 4 4 6 7 7 7 6 6 5 4 5 6 6 7 9 9 7 3 3 2 2 4 5 3 1 1 2 3 2 4 5 2 3 2 1 2 1 2 4 3 5 4 1 1 3 4 3 4 3 3 3 3 4 4 7
13 12 9 9 9 10 9 6 4 3 3 4 2 1 2 3 3 4 3 3 2 1 0 2 4 4 2 4 4 3 6 6 7 7 6 8 9 8 7 7 7 7 7 6 8 9 9 9 8 5 1 2 3 4 3 4 3 3 1 3 2 2 5 7 3 1 0 2 4 3 3 4 3 5 4 4 1 5 5 1 3 3 3 3 3 4 4 5
13 12 10 8 9 9 8 6 5 2 4 4 0 1 2 3 3 3 2 2 2 2 3 3 4 4 1 3 2 2 4 4 6 8 9 10 9 7 9 10 9 9 9 9 11 10 8 7 5 3 2 2 4 5 3 3 4 3 0 3 3 2 3 5 3 1 1 0 3 2 2 3 1 5 4 4 2 5 6 2 3 3 3 3 3 4 4 4
13 11 9 8 9 10 7 5 5 2 5 3 1 1 2 3 2 1 2 3 4 4 4 4 5 3 1 2 1 3 3 4 5 8 10 9 7 9 11 8 7 9 9 8 8 6 5 5 1 0 3 3 3 5 3 3 4 2 1 3 4 3 2 3 3 2 4 3 1 3 1 4 3 5 3 3 1 4 6 3 2 2 2 3 3 4 4 4
12 10 10 8 8 10 8 6 6 3 4 1 1 1 2 2 1 2 3 5 6 5 4 2 4 1 3 2 2 2 2 4 6 7 9 8 7 10 9 6 6 8 7 5 3 3 3 4 2 1 3 2 3 5 4 5 4 4 3 2 3 3 4 3 3 2 3 3 2 2 2 8 7 5 2 3 1 4 5 3 2 2 2 3 3 3 3 3
13 11 10 9 8 10 8 7 6 2 2 0 1 3 3 3 2 1 4 5 3 2 1 3 3 2 3 2 1 3 5 6 6 6 8 9 9 9 8 7 7 7 5 2 1 1 1 3 4 1 2 4 6 8 9 7 5 7 6 4 4 3 4 4 4 4 1 2 4 4 5 9 9 6 2 3 2 5 4 3 3 2 2 2 2 2 2 3
14 12 11 9 9 9 6 7 6 3 3 1 2 4 2 2 2 2 1 2 5 5 2 5 5 2 2 1 3 6 6 5 3 4 8 10 11 11 6 5 6 5 3 4 2 1 2 3 3 6 6 7 10 10 7 4 6 6 5 4 4 4 4 3 2 5 1 1 5 5 5 8 11 9 3 2 1 4 3 3 2 1 2 1 1 2 2 2
15 13 12 10 9 9 7 8 6 4 2 2 2 3 2 3 2 2 2 3 9 10 6 6 6 4 3 2 7 10 5 2 1 3 10 10 11 10 1 2 5 2 1 3 3 1 4 4 10 9 6 7 9 8 4 3 4 4 4 3 2 4 6 4 1 4 2 2 4 1 2 9 11 9 3 1 1 2 1 2 2 2 2 1 2 2 2 1
16 14 13 11 11 10 9 10 9 5 3 4 3 2 2 2 2 1 1 2 8 11 10 6 3 6 5 3 8 9 3 1 1 2 10 9 6 6 2 3 5 4 1 3 3 2 2 6 12 7 6 6 4 5 6 4 3 3 3 3 3 3 3 5 2 3 2 2 3 1 2 9 10 5 2 2 0 0 1 1 2 2 3 2 2 1 1 1
18 17 15 12 11 10 11 12 9 5 7 7 5 4 2 1 1 1 3 0 6 4 6 6 5 6 5 4 8 9 3 4 4 5 11 10 3 4 5 5 5 4 3 5 6 4 3 7 9 5 8 7 4 4 6 4 2 3 3 3 4 4 2 3 3 3 2 0 1 1 2 7 8 2 1 2 1 1 2 2 2 1 2 1 1 1 1 2
22 21 18 15 12 10 10 10 7 9 11 10 10 10 4 2 3 2 1 0 4 4 4 7 6 6 7 5 10 13 5 4 4 5 14 13 5 3 5 5 5 4 5 8 8 7 6 6 2 6 7 8 5 3 6 5 3 3 5 6 5 5 5 5 3 2 2 3 1 0 3 6 5 3 2 1 1 1 2 3 2 2 1 1 1 1 2 1
24 24 22 18 14 12 12 9 9 13 11 9 13 13 8 5 4 3 1 2 3 5 3 5 4 5 7 7 12 12 3 3 4 5 14 14 7 4 3 3 4 5 7 6 6 5 7 4 4 7 5 6 7 3 5 7 4 3 5 10 10 7 6 4 1 3 3 3 2 1 2 4 4 4 4 1 1 1 2 1 0 1 1 1 1 1 1 1
24 24 24 20 15 15 14 7 11 14 10 11 13 9 10 9 5 4 3 3 4 4 1 3 4 6 8 7 8 8 3 3 3 3 10 12 7 5 3 2 1 4 6 6 4 3 4 2 4 7 5 6 6 4 6 7 5 2 5 9 10 7 5 4 3 2 1 3 2 1 2 4 5 5 3 1 1 2 1 1 2 2 1 0 1 0 0 1
23 23 25 22 17 19 13 4 10 13 5 10 13 10 13 12 9 5 2 3 6 3 4 2 1 5 7 4 5 7 2 4 2 3 4 6 4 3 3 4 2 2 4 4 1 2 4 3 3 5 5 5 5 4 6 7 7 3 4 5 7 7 7 6 6 4 3 2 3 2 3 2 4 4 3 2 3 4 4 3 3 3 2 2 2 1 1 1
24 22 23 22 19 23 16 4 11 14 6 5 9 14 15 13 10 4 3 1 5 2 4 1 1 3 3 2 3 5 2 1 4 1 1 3 2 2 1 6 6 5 3 5 4 3 3 5 6 7 5 4 5 4 8 10 5 4 2 5 6 6 6 5 6 4 1 0 3 3 2 2 4 5 2 1 3 7 6 6 6 5 4 4 4 3 2 2
28 25 26 24 20 24 22 11 9 12 11 6 10 17 17 13 8 3 4 3 3 2 2 1 2 2 2 3 2 3 1 2 2 2 2 3 1 4 3 6 6 6 1 2 5 3 1 4 7 8 5 5 4 1 6 9 4 4 5 6 5 5 5 4 4 3 2 0 5 6 5 3 4 5 2 1 3 7 5 6 7 6 5 5 5 4 4 3
31 28 28 27 22 24 25 19 13 10 9 9 14 20 17 9 4 3 2 4 0 2 0 1 2 0 5 6 0 1 2 2 1 1 2 1 2 5 2 3 6 6 1 4 1 3 1 2 2 4 4 5 4 3 1 3 3 6 6 6 6 5 4 3 2 4 2 3 6 6 7 5 3 4 4 4 4 4 5 4 5 5 5 6 6 5 5 4
33 30 30 30 27 27 21 17 19 14 8 14 20 19 12 3 3 4 6 3 1 1 2 2 1 2 8 8 2 2 3 2 0 3 2 1 2 4 2 2 4 4 2 3 2 3 3 1 2 2 2 4 6 5 3 3 4 5 4 4 4 3 3 3 3 3 1 5 5 3 2 4 4 5 4 4 4 4 6 6 9 9 8 8 7 6 5 4
37 32 30 31 29 30 20 12 20 19 11 18 20 11 6 2 1 8 6 1 0 3 4 3 3 5 7 4 2 4 4 2 2 4 4 3 4 4 3 4 4 3 2 5 3 3 2 3 3 1 1 4 6 5 4 3 2 3 4 6 4 1 2 1 2 1 3 5 3 2 1 2 5 7 6 6 5 5 5 5 9 12 11 10 9 7 5 4
38 32 30 32 31 33 28 16 19 23 18 20 15 4 4 4 8 11 8 2 2 1 3 3 2 4 6 4 2 3 3 2 3 3 2 3 4 4 3 2 5 3 1 4 3 1 3 4 1 2 1 3 8 6 2 1 3 4 5 6 5 2 1 2 3 2 4 3 2 2 1 2 4 5 6 6 5 4 3 3 5 9 12 12 10 8 6 5
38 33 29 33 34 35 34 23 20 26 24 18 9 3 6 8 9 8 9 7 1 2 3 3 4 5 5 4 3 4 3 2 4 4 2 3 4 5 5 4 4 3 4 3 3 4 3 4 4 6 2 5 9 7 5 6 5 4 4 5 5 5 4 4 4 3 3 2 2 3 1 4 4 2 4 3 2 3 2 3 3 4 7 8 6 6 6 6
36 32 29 32 35 36 35 28 25 29 25 13 5 6 9 11 8 5 8 7 2 2 2 3 5 5 3 2 3 4 4 3 4 4 3 4 4 5 5 6 6 4 5 4 2 3 3 5 5 2 1 6 9 4 5 7 3 2 2 4 3 4 4 2 3 4 2 1 2 2 3 4 4 2 3 2 3 3 3 2 2 4 5 6 6 6 7 7
34 32 30 33 34 35 38 33 30 33 24 9 6 9 11 11 6 4 6 6 5 6 5 2 3 5 3 1 2 5 2 1 4 4 2 3 3 5 4 5 8 9 7 6 3 2 2 4 4 2 2 3 5 4 3 3 3 2 2 4 4 3 6 4 2 0 2 2 3 3 3 3 1 2 2 3 3 3 2 2 3 5 6 8 8 8 8 8
34 30 28 31 33 36 40 38 35 33 19 7 10 11 10 9 6 5 6 6 6 9 9 4 4 6 5 4 4 6 3 1 4 4 3 3 3 6 6 4 7 13 12 5 2 3 4 2 4 1 1 2 1 3 4 2 3 6 3 5 3 2 4 3 2 2 3 3 4 1 3 2 2 2 3 3 4 6 4 2 3 4 7 9 9 9 10 8
32 24 20 30 38 38 41 42 37 26 9 4 13 14 9 8 6 5 5 4 6 8 8 8 7 6 7 6 5 6 6 4 5 5 4 3 4 6 9 5 6 14 15 6 1 3 4 2 4 0 2 1 1 3 4 3 1 5 4 4 4 3 2 2 2 2 1 3 4 2 2 3 4 4 2 4 9 9 6 3 5 7 9 10 10 10 10 7
26 13 11 29 42 38 41 43 31 14 3 5 13 13 7 5 4 4 6 5 5 7 9 8 6 4 5 7 5 6 8 7 7 6 4 4 4 5 9 5 5 11 13 9 4 2 3 2 3 1 1 0 1 2 4 3 0 3 2 2 2 2 4 3 2 2 3 2 3 3 2 3 5 5 7 11 12 9 8 7 9 11 10 11 11 11 10 9
18 6 6 27 43 40 42 37 18 6 5 8 12 10 5 4 3 4 6 5 3 4 6 6 6 5 4 5 4 4 6 6 8 6 4 5 4 4 7 6 4 7 8 8 5 1 3 3 3 1 1 1 2 4 7 8 5 3 3 4 2 1 2 1 1 2 3 3 2 3 4 3 4 3 6 7 6 7 10 10 10 10 11 11 10 10 11 10
13 7 4 28 48 45 37 21 7 6 8 9 13 12 6 4 4 4 4 3 2 1 2 4 6 6 5 5 4 4 6 5 7 6 4 6 5 3 6 7 7 8 6 5 5 4 3 4 4 2 1 3 5 5 3 5 6 6 6 7 7 5 4 2 4 2 2 2 4 3 5 5 3 2 4 4 4 5 8 9 8 9 11 11 9 9 10 9
8 8 6 33 55 47 26 9 6 8 9 10 9 7 4 3 4 5 3 3 2 1 2 2 3 4 5 5 4 6 7 5 7 7 4 7 8 5 4 6 9 11 8 4 4 4 3 3 4 3 3 5 6 4 1 1 1 3 3 4 6 5 5 5 6 3 2 1 2 2 3 4 2 2 3 4 5 5 6 7 8 7 8 8 8 8 7 7
7 5 7 34 58 45 16 7 10 9 9 8 3 2 4 3 4 5 4 4 3 2 2 1 1 3 4 3 4 7 8 6 8 8 4 5 7 4 3 8 10 10 7 3 2 2 2 3 3 2 2 2 4 4 3 2 2 1 3 3 5 5 4 4 4 3 3 4 3 2 5 4 2 3 3 3 4 4 5 7 7 5 5 7 8 8 7 6
5 3 3 23 50 41 13 8 13 12 10 7 5 5 4 2 5 7 6 6 4 3 4 2 2 2 2 3 4 7 9 6 7 7 3 4 5 0 1 9 12 9 5 3 5 5 4 3 4 2 1 2 3 3 1 1 1 3 3 3 5 5 4 2 1 3 2 4 7 5 8 4 2 3 3 2 2 3 4 4 5 5 6 7 8 8 7 7
3 2 2 9 25 24 11 9 12 11 11 11 10 11 7 3 4 7 8 7 5 4 4 2 3 3 3 3 2 3 6 4 3 4 2 3 2 2 2 5 8 7 4 2 5 6 5 4 5 6 6 6 5 4 4 3 2 2 2 4 6 8 9 4 2 3 4 4 8 7 8 3 1 3 4 2 2 4 4 4 4 5 6 6 6 7 7 7
4 2 1 3 5 7 4 3 7 9 10 11 10 10 12 10 3 3 8 8 5 6 4 1 3 3 2 5 4 3 5 2 1 3 3 4 2 1 1 1 2 4 3 3 6 6 3 3 7 10 10 8 6 4 3 5 6 5 5 7 7 8 10 7 3 4 5 4 5 8 5 3 4 4 5 3 4 5 5 5 6 6 5 5 5 5 6 6
3 2 4 3 0 3 3 2 7 10 10 11 7 6 13 14 6 2 7 7 6 9 5 1 5 6 6 7 6 5 6 3 2 3 4 4 2 0 1 2 1 1 1 3 5 5 3 4 8 10 9 6 5 4 4 5 6 8 8 8 9 8 10 10 8 7 6 4 9 7 6 4 7 5 6 6 5 6 5 6 7 6 5 4 4 5 6 6
2 1 2 2 1 3 6 5 8 10 11 11 7 5 10 14 12 8 6 3 5 9 7 2 7 13 13 12 9 6 6 5 5 5 4 3 3 3 1 1 0 2 1 1 2 4 4 4 6 7 7 5 4 4 4 4 4 6 7 8 9 9 10 11 11 8 6 6 11 4 6 8 10 6 8 9 8 9 8 7 6 4 4 5 5 5 6 7
1 2 0 1 1 3 3 3 7 9 11 11 8 8 10 12 14 10 4 4 4 8 10 9 11 14 13 12 10 8 8 9 8 7 6 4 4 4 2 1 1 2 2 2 0 1 4 3 3 5 5 5 5 5 5 5 4 4 6 9 9 9 10 10 11 11 8 9 11 5 6 13 10 7 10 8 5 5 5 4 4 4 5 5 5 6 6 7
1 1 0 1 1 1 1 3 5 6 6 7 7 8 9 12 13 8 3 6 8 7 9 13 14 12 12 12 11 11 13 11 8 8 9 7 5 5 4 4 2 1 1 2 1 1 3 2 3 4 3 4 4 5 5 5 5 5 11 13 9 7 8 10 11 10 8 10 12 9 10 12 7 6 7 3 4 5 4 5 5 5 5 5 5 5 6 6
4 2 1 2 2 1 1 2 3 3 3 4 4 4 8 11 11 8 3 3 5 6 9 15 14 9 8 12 13 14 13 9 7 7 10 10 7 5 3 4 5 5 3 2 1 2 3 2 2 3 4 4 1 4 5 3 2 6 16 14 8 7 10 10 9 10 11 12 12 9 9 10 5 5 5 3 5 6 6 7 6 5 5 6 6 7 6 7
4 3 2 3 2 1 1 2 2 3 2 3 3 3 3 4 4 6 5 1 3 2 3 9 10 6 5 11 12 10 6 7 6 4 5 6 5 4 3 4 6 7 6 4 2 1 3 4 2 3 4 2 2 2 6 6 2 7 13 10 12 13 13 8 6 8 12 12 9 9 10 7 5 7 7 6 6 6 7 7 6 6 6 7 7 7 7 7
Wind_Direction
232 224 217 222 228 234 229 247 261 214 206 228 227 225 227 225 239 292 301 305 318 329 342 347 352 351 346 348 347 345 343 339 332 335 340 321 280 195 159 112 152 142 146 151 147 136 73 46 32 34 73 64 15 345 13 22 62 54 82 85 51 174 176 180 180 194 159 310 272 355 47 114 6 311 309 5 29 353 342 325 312 316 42 77 39 23 28 33
239 237 233 227 226 230 230 244 231 178 187 202 204 201 203 208 315 349 337 338 339 338 344 346 352 348 346 349 346 346 342 334 335 1 12 7 149 152 149 137 148 143 148 146 135 126 99 43 14 42 56 49 350 344 18 7 52 79 115 69 256 202 203 191 177 195 175 149 269 327 21 76 57 275 336 335 300 350 7 315 350 346 319 45 25 26 36 42
266 243 245 246 229 222 231 237 193 174 184 193 191 158 158 121 15 354 343 341 340 336 338 341 342 341 343 343 346 351 340 337 358 20 23 76 121 118 117 136 152 144 147 142 121 104 110 112 70 61 47 53 1 353 35 13 15 133 112 69 242 216 234 223 195 206 202 168 254 320 10 1 271 239 333 305 291 324 342 276 5 348 307 358 9 18 29 39
278 254 238 257 245 221 229 234 195 190 199 179 167 113 124 57 14 344 334 330 330 329 331 332 329 333 337 340 352 352 345 3 25 336 39 90 113 98 101 131 153 147 146 141 123 97 102 102 74 64 61 52 340 12 50 346 338 126 104 150 212 188 248 228 208 213 216 181 146 122 357 330 269 207 187 147 304 314 295 239 214 335 324 354 352 9 25 35
269 267 250 251 254 234 230 231 209 196 197 165 329 18 33 343 332 337 334 326 322 321 325 324 323 330 333 341 358 357 6 30 284 245 70 88 102 96 111 137 153 154 148 146 134 103 95 87 63 52 54 48 346 29 33 309 84 101 25 175 186 146 245 246 208 211 193 150 127 125 312 296 197 166 176 160 223 280 331 337 130 62 55 40 4 7 24 32
270 275 264 253 252 242 230 226 226 194 178 315 312 326 333 309 313 323 322 319 316 317 323 321 325 334 335 344 353 16 52 43 251 207 75 78 110 99 120 143 148 151 150 148 139 108 84 56 55 56 49 55 17 55 263 299 49 84 310 277 212 176 224 248 194 216 161 126 169 182 234 81 76 297 199 174 218 246 38 59 92 72 76 72 39 31 26 27
270 276 272 263 254 248 235 221 223 201 193 237 291 308 312 317 320 315 319 319 314 322 331 328 334 339 345 358 356 42 75 258 256 220 265 274 211 169 133 154 159 171 175 147 132 116 90 61 75 126 81 60 172 120 124 333 42 89 249 285 223 182 218 220 172 212 174 194 231 164 70 230 200 269 185 187 235 65 70 73 81 74 68 67 50 42 34 28
271 279 275 268 261 253 238 226 215 197 210 225 271 305 306 319 322 319 323 319 323 335 338 334 338 351 7 54 77 39 21 248 239 223 261 257 219 197 163 174 178 198 189 158 146 143 119 84 133 155 79 38 172 124 99 353 38 88 221 263 157 199 242 246 244 245 228 236 231 136 192 228 212 184 154 229 42 80 93 68 68 75 62 53 47 39 33 31
269 280 273 265 257 248 231 218 203 195 216 224 245 273 291 314 324 324 323 322 337 343 340 341 336 358 29 95 90 37 283 223 210 230 251 233 210 194 186 188 192 205 176 164 160 150 152 165 183 178 140 170 153 119 17 321 318 197 187 246 254 276 288 274 253 239 229 236 172 179 242 229 223 164 152 303 98 117 88 61 51 65 58 48 44 35 29 30
264 276 270 260 250 243 223 206 202 204 222 228 243 262 285 312 324 324 326 330 341 344 341 341 329 357 154 115 90 51 252 176 179 206 204 212 198 189 197 201 202 201 167 155 160 150 165 188 168 148 133 126 140 122 169 143 178 189 174 244 253 291 300 259 250 253 228 238 186 209 265 223 239 166 169 169 119 136 77 57 36 59 60 52 50 38 33 30
258 270 264 254 244 240 221 208 207 210 226 240 263 269 288 315 330 327 330 331 336 346 339 334 330 3 149 120 115 202 239 187 212 178 167 201 193 191 201 207 197 194 173 151 167 166 158 172 147 120 123 135 126 70 263 181 105 127 44 292 289 317 302 283 300 296 289 239 180 182 233 40 349 202 180 165 82 116 89 66 41 58 57 51 53 45 39 31
251 263 259 246 238 237 217 207 211 213 231 256 272 277 307 320 333 328 328 328 331 338 325 328 315 170 119 83 170 222 231 198 202 172 179 189 185 191 188 190 173 176 181 155 174 176 146 163 140 103 152 146 130 32 209 170 84 92 39 329 307 343 327 317 350 306 327 201 178 161 239 347 340 219 184 113 97 114 91 71 50 56 48 47 46 43 44 30
248 253 252 244 235 229 211 206 215 218 242 273 274 281 313 320 335 328 324 326 328 332 313 305 229 159 108 344 231 226 228 216 213 191 175 179 176 174 158 161 153 151 172 152 165 170 160 170 141 105 118 115 132 193 115 63 49 282 40 34 312 347 329 310 17 321 336 74 262 128 289 305 297 259 237 171 149 110 68 51 37 45 40 39 37 41 43 29
247 248 246 244 233 223 208 202 220 224 255 278 274 279 312 327 331 319 328 327 325 320 307 242 186 145 111 253 241 227 228 225 226 214 189 182 163 142 135 137 136 138 147 139 146 148 154 158 123 100 100 83 138 134 55 15 21 328 359 41 352 342 285 297 345 333 342 10 353 66 251 271 252 266 293 343 144 93 75 41 23 39 38 32 39 42 39 30
241 244 243 241 229 215 198 193 208 223 267 275 281 323 325 336 329 331 339 329 343 353 157 133 161 131 74 276 254 229 228 220 215 209 196 184 163 136 129 129 124 122 121 121 124 123 131 134 106 92 92 6 85 97 27 353 14 27 307 306 341 183 268 307 328 2 40 333 12 97 233 275 217 238 323 8 73 106 107 81 27 40 38 37 35 40 40 24
239 241 241 235 221 205 190 194 191 196 274 269 327 347 335 343 338 354 9 23 66 100 109 123 146 125 75 271 239 234 226 206 202 199 187 181 173 147 132 126 113 111 112 107 110 112 105 96 76 76 114 61 81 94 48 355 338 1 169 251 267 201 273 317 317 346 66 349 3 58 234 293 190 223 304 11 91 110 113 120 55 50 36 46 41 39 42 19
239 241 239 234 221 201 186 197 184 197 264 247 69 347 354 354 351 30 68 92 100 92 89 123 132 111 254 224 223 268 227 184 183 183 182 177 174 155 137 117 99 105 105 98 104 99 55 50 66 322 58 69 104 103 71 311 278 302 357 237 249 218 218 296 289 332 40 85 355 12 274 262 218 209 271 2 105 112 112 129 87 74 47 49 49 45 42 26
232 239 237 241 227 196 183 194 189 219 262 233 47 17 42 28 41 96 136 124 102 73 56 107 111 77 266 215 199 229 135 149 160 163 172 161 155 156 139 113 109 104 85 66 65 61 22 25 71 45 27 57 135 120 162 228 216 187 185 205 252 243 223 250 259 275 24 33 337 7 288 270 254 211 245 351 62 114 116 134 115 92 66 55 53 56 48 31
226 232 234 247 225 190 184 195 189 204 240 233 78 101 73 45 45 100 152 133 116 111 211 216 153 149 234 241 181 134 111 129 142 149 154 145 144 141 117 103 104 94 89 89 16 73 76 50 64 170 222 190 180 177 197 205 156 161 171 158 186 229 244 231 237 263 315 11 299 254 245 271 272 245 226 345 30 104 121 121 102 85 68 65 60 59 58 48
221 223 228 242 216 182 186 206 195 187 214 245 118 112 89 55 35 318 243 185 213 193 176 200 190 191 249 272 141 135 124 117 124 151 152 151 143 125 90 72 67 64 109 154 173 138 110 121 199 223 205 186 197 199 193 149 111 128 133 131 181 221 263 237 236 297 338 159 270 248 244 268 271 267 269 329 27 103 121 117 105 101 91 80 79 62 47 57
217 217 221 231 210 182 194 208 184 164 217 243 163 131 168 165 130 280 263 259 244 230 237 222 205 249 265 174 157 153 135 85 37 149 157 159 147 138 102 54 92 89 218 151 142 64 88 172 228 227 183 173 195 192 160 125 116 113 129 161 227 231 251 256 225 312 347 193 258 294 271 269 264 268 299 341 171 127 146 152 149 143 129 95 81 57 23 31
216 217 219 223 209 195 201 196 173 168 231 236 201 203 246 194 150 200 161 291 269 236 233 238 234 262 255 179 177 167 122 98 287 213 171 157 147 170 166 94 138 177 202 122 117 61 91 223 239 218 140 119 122 154 167 185 168 121 121 155 237 230 251 288 297 337 19 183 262 344 283 269 268 268 351 353 233 227 315 175 163 164 143 108 89 66 34 39
216 219 221 218 210 208 202 187 173 193 228 225 212 207 243 295 147 110 112 277 291 250 211 212 215 229 224 219 194 173 168 189 196 232 184 156 137 185 146 130 154 142 152 178 167 150 175 246 244 180 134 116 87 123 152 168 187 167 146 158 233 225 194 272 289 337 12 125 271 342 310 275 272 280 43 353 357 60 6 49 62 83 129 108 104 67 53 64
222 226 228 216 206 208 194 180 187 220 226 228 234 221 189 126 159 159 81 315 283 276 222 203 198 202 202 203 182 175 198 200 180 210 182 161 136 156 158 153 138 137 195 198 180 184 219 254 222 130 141 144 129 121 142 163 228 222 192 194 227 222 207 234 274 331 344 8 39 118 321 289 271 260 243 315 12 37 30 60 51 32 61 69 75 51 38 56
223 230 230 214 202 197 188 192 221 224 217 222 240 229 193 171 171 177 82 17 285 287 279 210 198 210 190 161 167 171 172 219 219 201 176 168 148 138 178 154 138 192 200 169 167 216 249 246 117 114 147 155 144 162 180 180 206 268 223 211 220 217 211 226 352 18 353 336 321 148 281 285 307 288 244 255 2 308 15 61 108 354 26 53 79 58 33 39
219 230 229 211 197 191 190 215 226 212 204 225 241 222 187 183 167 167 108 34 276 264 250 196 181 187 175 149 161 147 79 252 248 135 162 175 163 125 147 145 89 204 175 138 158 218 250 237 115 123 143 147 151 213 222 172 147 264 243 210 213 203 185 177 133 102 215 257 296 79 184 255 316 312 261 214 208 242 292 272 240 260 280 201 188 210 7 42
216 229 223 204 192 190 193 215 195 182 180 240 237 200 186 180 168 184 80 8 273 196 135 220 170 158 167 168 161 138 165 241 107 86 146 170 177 91 134 176 134 198 163 126 195 240 195 172 120 135 127 132 164 225 218 158 138 236 250 167 172 176 182 179 158 174 223 249 318 10 146 226 291 283 263 186 203 241 241 236 245 233 220 218 222 229 208 189
214 221 213 200 198 198 200 184 167 178 198 232 200 179 180 176 173 169 79 299 273 116 114 253 74 105 130 108 97 115 215 264 111 217 346 100 164 58 151 201 166 168 168 148 209 264 162 176 190 172 146 167 197 215 186 158 153 241 215 124 141 157 166 155 148 181 249 341 287 281 157 210 266 270 293 135 230 250 221 204 219 214 205 203 209 219 209 201
214 212 207 203 207 208 212 216 180 191 216 202 163 169 169 169 172 85 77 224 264 85 85 115 118 42 66 106 57 65 37 19 107 245 359 86 113 60 161 201 142 141 126 141 208 250 131 211 199 160 160 199 200 236 178 165 182 200 134 96 81 78 84 97 126 136 72 216 239 225 182 200 268 279 286 123 245 250 205 187 206 196 191 198 200 204 202 200
216 213 211 202 202 209 214 225 217 193 197 182 161 160 157 154 142 98 186 231 204 103 71 100 147 61 120 135 274 4 74 24 42 49 33 91 33 35 123 148 96 120 35 8 238 239 320 281 201 149 172 183 134 65 117 142 142 140 115 78 58 42 43 51 66 89 74 267 246 219 191 194 258 271 235 204 229 208 151 163 194 178 186 200 202 199 193 190
214 214 213 202 201 207 208 218 215 196 177 173 160 150 148 110 67 162 213 245 42 150 126 127 201 142 148 152 176 173 106 40 135 115 106 135 68 49 103 126 81 81 6 327 286 298 342 345 242 195 151 126 101 68 39 61 104 113 98 96 88 6 11 24 358 49 171 251 262 261 201 183 229 257 238 231 240 187 156 170 179 178 189 196 198 198 190 186
214 212 212 206 207 210 211 215 205 199 185 168 159 141 135 106 190 212 224 18 162 206 152 163 196 169 172 152 104 149 129 110 181 138 137 147 153 172 179 175 156 95 307 242 240 326 287 224 235 242 161 140 115 88 41 26 65 88 97 118 120 331 359 345 292 242 228 248 273 295 195 190 234 249 244 231 218 203 191 183 177 178 184 188 194 192 183 184
213 211 211 210 211 211 215 217 201 199 188 166 160 131 117 180 221 217 213 208 227 212 117 119 118 134 153 141 134 168 128 142 183 156 135 125 154 210 250 201 162 129 178 201 175 203 276 289 223 152 249 186 154 153 156 174 169 153 150 146 146 144 130 242 255 262 256 255 291 286 225 225 262 266 251 225 209 211 213 213 195 183 182 185 187 178 175 185
211 210 210 210 212 213 214 211 200 197 184 164 161 150 157 209 226 197 197 212 229 30 62 99 94 102 143 168 214 182 139 199 177 140 118 121 145 209 238 232 192 114 99 139 167 177 212 287 206 176 211 185 177 184 159 143 155 176 161 140 154 163 168 210 216 217 243 263 310 294 208 186 201 269 278 247 271 292 272 251 230 200 186 177 167 164 175 188
208 208 211 210 212 215 211 208 203 193 178 160 165 175 187 219 224 188 195 197 162 64 39 64 98 115 176 245 277 205 174 209 173 133 150 164 174 199 197 204 197 151 134 165 209 171 182 267 246 234 276 170 177 188 115 115 139 204 126 114 177 187 148 156 193 178 185 289 294 231 225 218 197 258 315 350 326 310 318 305 211 201 180 160 166 178 183 193
202 205 210 208 209 211 208 209 203 187 173 159 182 194 210 221 205 180 190 172 163 147 118 76 96 124 200 249 254 228 203 135 157 151 197 202 214 206 191 204 194 184 177 168 191 168 144 278 281 357 5 165 177 181 124 131 174 152 137 175 213 175 115 113 237 55 82 258 260 192 232 292 310 283 318 24 328 294 314 309 202 189 171 168 185 189 191 198
196 201 205 205 207 207 206 209 197 180 172 174 198 205 219 220 194 173 177 154 151 143 139 197 193 155 190 202 201 206 186 125 162 170 197 207 228 196 194 237 196 192 199 178 195 196 150 260 287 101 159 263 219 142 80 31 138 126 179 207 181 120 93 106 232 345 47 243 270 211 211 241 159 246 317 10 295 258 232 227 196 184 180 185 195 195 197 197
193 196 206 208 205 201 203 205 192 178 174 196 210 217 212 208 199 170 160 130 130 147 165 210 205 170 183 190 191 185 176 179 173 178 190 200 245 191 176 212 200 195 203 175 174 233 147 218 291 57 168 264 342 123 86 359 78 132 184 185 118 148 173 108 181 227 201 241 286 291 231 223 192 207 217 208 230 229 206 193 199 197 192 193 198 199 198 191
190 194 222 208 200 196 197 198 190 182 207 197 213 225 206 198 214 172 162 142 133 167 190 209 202 178 180 174 166 167 178 181 166 175 189 184 232 199 172 195 205 199 200 173 170 224 131 185 267 331 208 215 26 163 174 205 337 69 114 125 94 158 170 156 166 171 179 218 284 289 252 233 226 207 185 200 216 203 177 190 208 206 200 198 197 195 195 193
182 203 237 192 191 191 189 188 186 196 225 204 212 221 191 176 211 198 182 163 155 186 194 198 188 175 172 171 169 168 179 182 170 182 209 187 202 218 198 197 177 181 185 168 176 164 118 184 229 311 325 166 188 219 195 183 172 143 151 162 169 144 128 189 209 126 139 170 208 275 282 254 244 206 187 213 232 196 186 197 205 203 202 204 200 196 195 195
175 214 211 174 181 182 177 180 197 199 212 222 222 223 208 166 162 191 196 149 153 209 161 170 184 178 166 170 191 180 166 176 181 185 217 204 192 222 212 188 158 151 137 149 194 190 159 176 173 168 191 189 230 260 215 190 181 169 180 183 182 173 138 177 241 194 130 175 179 216 271 257 228 184 193 227 244 216 205 198 198 204 203 203 203 200 198 193
177 215 169 166 174 171 165 188 212 192 212 222 220 218 191 149 149 172 181 137 126 158 129 139 176 175 172 171 180 173 159 171 192 191 212 209 199 209 204 163 150 154 143 145 195 177 136 128 143 182 208 212 251 291 28 206 156 149 203 193 177 182 155 174 224 211 143 213 136 119 271 268 235 206 211 232 243 237 216 194 195 207 200 197 202 200 198 190
188 198 145 163 170 165 162 216 197 196 223 208 194 177 142 140 164 165 175 180 162 136 155 182 187 187 194 170 157 173 175 182 191 188 200 211 206 221 191 153 148 153 150 145 159 141 119 126 150 237 306 312 307 333 29 36 65 169 239 182 166 195 178 181 209 149 158 203 132 128 253 255 242 233 225 246 257 245 219 197 189 196 196 196 198 196 191 180
180 166 112 170 172 167 170 214 194 205 217 194 198 206 169 136 176 173 179 185 169 141 156 185 204 194 191 156 148 179 189 194 196 190 184 191 195 277 141 164 160 160 175 178 159 167 185 160 142 152 324 337 332 333 311 293 231 220 222 182 186 177 129 104 108 102 207 194 146 186 244 233 212 247 246 265 248 219 221 203 183 191 200 199 197 195 190 178
155 119 16 188 178 174 188 208 197 204 206 203 215 210 202 219 193 184 183 178 172 164 160 183 186 152 145 149 116 174 193 188 183 185 173 181 184 37 35 191 183 178 192 172 140 156 178 175 163 177 196 204 205 213 218 199 184 223 196 182 198 180 162 164 138 168 227 182 155 202 240 239 201 209 220 225 158 186 215 209 209 214 205 202 198 192 189 184
171 149 142 198 203 202 209 198 197 205 202 205 215 209 209 218 214 179 188 190 192 180 166 129 138 126 152 172 150 177 206 206 108 161 174 180 192 11 20 242 204 189 176 153 148 145 140 182 197 205 213 207 197 207 197 141 147 194 198 183 193 191 181 173 153 195 200 161 198 220 212 239 250 201 209 231 184 191 203 197 219 230 212 206 199 188 187 187
188 167 168 164 205 226 220 183 193 205 206 201 198 198 208 213 212 179 195 203 191 178 175 104 158 180 196 184 177 188 192 181 144 167 176 167 155 96 24 74 88 284 165 157 156 136 129 209 209 211 223 211 167 163 162 135 151 181 186 186 193 188 181 186 204 206 146 149 237 222 143 205 251 207 201 223 203 199 203 200 214 216 201 196 182 180 184 178
206 151 176 172 88 200 217 204 189 200 203 196 196 205 208 211 210 202 197 196 171 175 185 198 198 203 198 185 186 189 176 182 199 189 171 150 144 131 61 73 135 322 1 133 138 124 156 215 204 195 214 200 150 153 158 133 140 173 184 192 190 183 183 195 215 212 158 192 245 231 136 228 254 220 202 211 199 193 196 197 194 175 175 180 170 178 183 180
163 85 355 303 73 174 197 171 175 196 196 187 198 213 209 209 209 203 170 137 170 191 196 205 208 205 199 187 182 184 184 189 203 196 169 156 162 146 119 156 229 336 42 119 81 128 167 206 176 174 208 208 180 177 169 163 172 200 222 219 205 197 195 200 221 226 211 232 260 263 225 244 249 203 197 203 183 177 174 160 157 164 179 179 174 185 189 189
118 120 144 55 73 105 71 111 156 190 193 182 194 208 211 211 209 203 163 168 189 193 197 210 211 196 190 188 185 198 203 191 187 184 166 163 180 175 174 184 165 60 72 148 202 220 201 203 130 139 215 232 180 154 168 190 188 222 248 240 219 213 221 220 228 229 223 239 245 229 227 244 240 181 187 178 113 132 160 170 182 197 193 175 182 198 202 202
95 79 112 107 91 62 62 98 145 173 195 193 190 198 210 216 213 205 201 206 194 180 195 209 207 187 183 192 197 209 208 184 168 175 167 168 180 180 181 174 147 142 165 175 162 177 197 193 95 123 206 234 166 141 161 148 106 254 257 244 197 199 227 226 224 216 210 223 226 214 224 241 224 170 177 168 143 165 193 196 199 212 200 186 198 211 216 219
102 52 29 93 99 110 106 76 122 164 184 181 168 163 187 213 231 211 213 306 37 70 226 208 189 166 176 196 208 215 189 148 139 141 140 138 130 119 124 135 135 142 161 171 155 158 172 162 139 164 186 236 328 147 139 105 77 262 255 220 185 205 223 225 232 219 209 211 212 216 227 223 170 162 180 187 182 196 213 212 210 214 204 201 213 220 227 233